Weather History for KOZW - May, 2014

Change the Weather History Date:

Saturday, May 10, 2014

  Actual Average Record
Temperature  
Mean Temperature 58 °F -  
Max Temperature 68 °F 65 °F 84 °F (2004)
Min Temperature 48 °F 45 °F 37 °F (1997)
Degree Days  
Heating Degree Days 7    
Growing Degree Days 8 (Base 50)    
Moisture  
Dew Point 40 °F    
Average Humidity 55    
Maximum Humidity 82    
Minimum Humidity 30    
Precipitation  
Precipitation 0.00 in - - ()
Sea Level Pressure  
Sea Level Pressure 29.91 in    
Wind  
Wind Speed 9 mph (West)    
Max Wind Speed 23 mph    
Max Gust Speed 29 mph    
Visibility 10 miles    
Events      
Averages and records for this station are not official NWS values.
T = Trace of Precipitation, MM = Missing Value Source: NWS Daily Summary

Daily Weather History Graph

Daily Weather History Graph

Search for Another Location

Airport or City:

Trip Planner

Search our weather history database for the weather conditions in past years. The results will help you decide how hot, cold, wet, or windy it might be!

Date:

Astronomy

May. 10, 2014 Rise Set
Actual Time 6:19 AM EDT 8:46 PM EDT
Civil Twilight 5:47 AM EDT 9:18 PM EDT
Nautical Twilight 5:07 AM EDT 9:57 PM EDT
Astronomical Twilight 4:23 AM EDT 10:42 PM EDT
Moon 4:35 PM EDT (5/10) 3:57 AM EDT (5/10)
Length of Visible Light 15h 30m
Length of Day
14h 26m
Waxing Gibbous, 82% of the Moon is Illuminated
May 10
Waxing Gibbous
May 14
Full
May 21
Last Quarter
May 28
New
Jun 5
First Quarter

Hourly Weather History & Observations

Time (EDT) Temp. Dew Point Humidity Pressure Visibility Wind Dir Wind Speed Gust Speed Precip Events Conditions
12:15 AM 57.6 °F 48.4 °F 71% 29.81 in 10.0 mi West 5.8 mph - N/A   Clear
12:34 AM 56.5 °F 48.0 °F 73% 29.81 in 10.0 mi WSW 6.9 mph - N/A   Clear
1:15 AM 55.4 °F 46.6 °F 72% 29.83 in 10.0 mi WSW 8.1 mph - N/A   Clear
1:34 AM 55.4 °F 45.7 °F 70% 29.84 in 10.0 mi West 13.8 mph 19.6 mph N/A   Clear
1:55 AM 54.7 °F 45.1 °F 70% 29.85 in 10.0 mi West 9.2 mph - N/A   Clear
2:14 AM 53.2 °F 45.7 °F 76% 29.84 in 10.0 mi WSW 6.9 mph - N/A   Clear
2:35 AM 52.9 °F 44.6 °F 73% 29.85 in 10.0 mi West 10.4 mph - N/A   Clear
2:55 AM 52.5 °F 43.9 °F 72% 29.85 in 10.0 mi WSW 5.8 mph - N/A   Clear
3:14 AM 51.6 °F 44.2 °F 76% 29.86 in 10.0 mi West 9.2 mph - N/A   Clear
3:35 AM 50.5 °F 43.7 °F 77% 29.86 in 10.0 mi WSW 4.6 mph - N/A   Clear
3:55 AM 50.4 °F 43.9 °F 78% 29.86 in 10.0 mi WSW 6.9 mph - N/A   Clear
4:14 AM 50.0 °F 43.7 °F 79% 29.87 in 10.0 mi WSW 6.9 mph - N/A   Clear
4:35 AM 50.0 °F 43.5 °F 78% 29.86 in 10.0 mi WSW 5.8 mph - N/A   Clear
4:55 AM 49.3 °F 43.3 °F 80% 29.86 in 10.0 mi WSW 6.9 mph - N/A   Clear
5:14 AM 49.3 °F 43.0 °F 79% 29.87 in 10.0 mi WSW 8.1 mph - N/A   Clear
5:35 AM 49.5 °F 42.8 °F 78% 29.88 in 10.0 mi West 8.1 mph - N/A   Clear
5:55 AM 48.9 °F 42.8 °F 79% 29.88 in 10.0 mi WSW 6.9 mph - N/A   Clear
6:14 AM 48.2 °F 42.8 °F 82% 29.89 in 10.0 mi WSW 6.9 mph - N/A   Clear
6:35 AM 48.6 °F 43.0 °F 81% 29.89 in 10.0 mi West 5.8 mph - N/A   Clear
6:55 AM 48.2 °F 43.0 °F 82% 29.90 in 10.0 mi SW 4.6 mph - N/A   Clear
7:14 AM 48.7 °F 43.3 °F 82% 29.91 in 10.0 mi SW 4.6 mph - N/A   Clear
7:35 AM 49.8 °F 43.7 °F 79% 29.91 in 10.0 mi SW 4.6 mph - N/A   Clear
7:54 AM 50.4 °F 44.1 °F 79% 29.92 in 10.0 mi SW 6.9 mph - N/A   Clear
8:15 AM 51.8 °F 44.6 °F 76% 29.93 in 10.0 mi SW 9.2 mph - N/A   Clear
8:35 AM 53.1 °F 44.8 °F 73% 29.93 in 10.0 mi SW 8.1 mph - N/A   Clear
8:54 AM 54.1 °F 44.8 °F 71% 29.93 in 10.0 mi WSW 10.4 mph - N/A   Clear
9:15 AM 55.4 °F 45.1 °F 68% 29.93 in 10.0 mi West 11.5 mph - N/A   Clear
9:35 AM 56.5 °F 44.8 °F 65% 29.93 in 10.0 mi West 11.5 mph - N/A   Clear
9:54 AM 56.8 °F 43.9 °F 62% 29.93 in 10.0 mi West 8.1 mph - N/A   Clear
10:15 AM 58.1 °F 45.0 °F 62% 29.93 in 10.0 mi West 10.4 mph - N/A   Clear
10:35 AM 58.3 °F 43.7 °F 58% 29.93 in 10.0 mi West 10.4 mph 16.1 mph N/A   Clear
10:54 AM 58.6 °F 43.0 °F 56% 29.94 in 10.0 mi West 10.4 mph 16.1 mph N/A   Clear
11:15 AM 60.3 °F 43.3 °F 54% 29.94 in 10.0 mi WSW 13.8 mph 18.4 mph N/A   Clear
11:35 AM 61.0 °F 43.7 °F 53% 29.94 in 10.0 mi West 12.7 mph 18.4 mph N/A   Clear
11:54 AM 61.9 °F 42.6 °F 49% 29.93 in 10.0 mi West 11.5 mph 20.7 mph N/A   Scattered Clouds
12:15 PM 62.6 °F 43.5 °F 50% 29.93 in 10.0 mi SW 9.2 mph 21.9 mph N/A   Scattered Clouds
12:35 PM 63.1 °F 38.5 °F 40% 29.93 in 10.0 mi West 16.1 mph 28.8 mph N/A   Scattered Clouds
12:54 PM 63.9 °F 40.3 °F 42% 29.94 in 10.0 mi West 16.1 mph 23.0 mph N/A   Scattered Clouds
1:15 PM 64.0 °F 39.2 °F 40% 29.93 in 10.0 mi WSW 18.4 mph 25.3 mph N/A   Scattered Clouds
1:35 PM 64.6 °F 37.6 °F 37% 29.92 in 10.0 mi West 23.0 mph 28.8 mph N/A   Scattered Clouds
1:54 PM 66.0 °F 38.8 °F 37% 29.92 in 10.0 mi West 13.8 mph 24.2 mph N/A   Scattered Clouds
2:15 PM 66.2 °F 38.8 °F 37% 29.91 in 10.0 mi WSW 16.1 mph 24.2 mph N/A   Scattered Clouds
2:35 PM 66.2 °F 39.0 °F 37% 29.91 in 10.0 mi West 12.7 mph 18.4 mph N/A   Scattered Clouds
2:54 PM 67.3 °F 38.7 °F 35% 29.91 in 10.0 mi West 19.6 mph 24.2 mph N/A   Scattered Clouds
3:15 PM 67.5 °F 37.6 °F 33% 29.91 in 10.0 mi WNW 18.4 mph 26.5 mph N/A   Scattered Clouds
3:35 PM 66.4 °F 37.4 °F 34% 29.91 in 10.0 mi West 19.6 mph 24.2 mph N/A   Clear
3:54 PM 67.5 °F 36.3 °F 32% 29.91 in 10.0 mi WNW 19.6 mph 26.5 mph N/A   Clear
4:15 PM 68.0 °F 36.5 °F 31% 29.91 in 10.0 mi West 15.0 mph 24.2 mph N/A   Clear
4:35 PM 66.2 °F 35.2 °F 32% 29.91 in 10.0 mi WNW 15.0 mph 24.2 mph N/A   Clear
4:55 PM 66.7 °F 35.8 °F 32% 29.91 in 10.0 mi West 15.0 mph - N/A   Clear
5:15 PM 67.5 °F 37.6 °F 33% 29.91 in 10.0 mi West 11.5 mph 17.3 mph N/A   Scattered Clouds
5:35 PM 67.5 °F 34.7 °F 30% 29.91 in 10.0 mi West 15.0 mph 23.0 mph N/A   Scattered Clouds
5:55 PM 67.1 °F 35.2 °F 31% 29.91 in 10.0 mi WNW 13.8 mph 23.0 mph N/A   Clear
6:15 PM 66.4 °F 34.5 °F 31% 29.91 in 10.0 mi West 17.3 mph 21.9 mph N/A   Clear
6:34 PM 66.2 °F 34.5 °F 31% 29.92 in 10.0 mi West 16.1 mph 19.6 mph N/A   Clear
6:55 PM 66.0 °F 33.8 °F 30% 29.92 in 5.0 mi West 16.1 mph 21.9 mph N/A   Haze
7:15 PM 64.9 °F 34.0 °F 32% 29.92 in 10.0 mi NW 6.9 mph - N/A   Clear
7:34 PM 64.0 °F 33.3 °F 32% 29.92 in 10.0 mi WNW 12.7 mph 23.0 mph N/A   Clear
7:55 PM 63.0 °F 34.2 °F 34% 29.93 in 10.0 mi WNW 11.5 mph - N/A   Clear
8:15 PM 61.2 °F 34.2 °F 36% 29.93 in 10.0 mi WNW 8.1 mph - N/A   Clear
8:34 PM 59.5 °F 34.7 °F 39% 29.95 in 10.0 mi West 6.9 mph - N/A   Clear
8:55 PM 59.4 °F 34.3 °F 39% 29.95 in 10.0 mi West 6.9 mph - N/A   Clear
9:15 PM 57.9 °F 35.4 °F 43% 29.95 in 10.0 mi WNW 3.5 mph - N/A   Clear
9:34 PM 57.6 °F 35.6 °F 44% 29.96 in 10.0 mi NW 3.5 mph - N/A   Clear
9:55 PM 56.5 °F 36.0 °F 46% 29.97 in 10.0 mi Calm Calm - N/A   Clear
10:14 PM 56.1 °F 35.2 °F 45% 29.98 in 10.0 mi Calm Calm - N/A   Clear
10:35 PM 55.2 °F 36.5 °F 49% 29.98 in 10.0 mi Calm Calm - N/A   Clear
10:55 PM 51.6 °F 37.0 °F 58% 29.98 in 10.0 mi Calm Calm - N/A   Clear
11:14 PM 52.2 °F 36.9 °F 56% 29.99 in 10.0 mi SW 3.5 mph - N/A   Clear
11:35 PM 50.9 °F 36.5 °F 58% 29.99 in 10.0 mi Calm Calm - N/A   Clear
11:55 PM 48.6 °F 37.0 °F 64% 29.99 in 10.0 mi Calm Calm - N/A   Clear